Showing default

HIBARI, 49400

Orbit data source: Space-Track

HIBARI, 49400 is a Japanese payload satellite in SSO that was launched on Tue, 09 Nov 2021 UTC via an EPSILON launch vehicle from the Kagoshima Space Center University Of Tokyo (KSCUT). Payload-class satellites include a variety of spacecraft equipped with specific instruments for various scientific and technological missions. These include communications satellites like Starlink; space stations such as the ISS; scientific satellites like the Hubble; Earth observation satellites from companies like Planet Labs, Umbra, and HawkEye 360; GPS; miniature CubeSats for education and research; and military/defense satellites.

Loading next visibility...
Identifier
49400, 2021-102F
Orbit
SSO
Country
Flag of JPJP / JPN
Related business
Manufacturer
TITech
Mission
Operational Amateur Technology
Bus & Motor
HIBARI, Unknown motor
Mass
55 kg wet, 55 kg dry
Launch date (UTC)
2021-11-09 (4 years ago)
Launch vehicle
EPSILON
Launch site
Kagoshima Space Center University Of Tokyo (KSCUT)
Object type
Payload
Rocket body
Debris
Shape & HBR
Box, 0.3 m
Radar Cross Section
0.499 m², Medium (>0.1 m² and < 1m²)

Expand to show TLE details & history
Last TLE update: 10 hours ago

TLE from 10 hours ago
0 HIBARI
1 49400U 21102F   26095.12969239  .00015530  00000-0  53083-3 0  9992
2 49400  97.3324 141.9152 0013715 100.9037 259.3748 15.30276480243011
Epoch: 2026-04-05T03:06Z
TLE epoch observation values (Epoch: 2026-04-05T03:06:45.422Z)
Latitude
-0.00002°
Longitude
-98.2136°
Altitude
479.839 km
Speed
7.625 km/s
True Right ascension
09h 27m 39s
True Declination
0° 00' 00"
Sunlit
Object was in full shadow at epoch
Visualization orbit readout
Latitude
Unknown
Longitude
Unknown
Altitude
Unknown
Speed
Unknown
Apparent Right ascension
Unknown
Apparent Declination
Unknown
Sunlit
N/A
Visualization observer readout
Local Sidereal Time
19:28:55
Azimuth
Unknown
Elevation
Unknown
Doppler factor
Unknown
Orbital elements
Apogee altitude
481.331 km
Perigee altitude
462.541 km
Semi-major axis
6,850.073 km
Eccentricity
0.00137
Inclination
97.3324°
RAAN
141.9152°
Arg. of periapsis
100.9037°
True anomaly
259.22038°
Mean anomaly
259.3748°
Eccentric anomaly
259.29759°
Mean motion
3.82825 °/min
Orbital period
94.04 mins
BSTAR
0.00053083
Loading maneuver chart data...
Computing Atmospheric mass density...
Loading historical data...
Loading historical data...
Loading historical data...
Loading historical data...
Loading historical data...
Loading historical data...
Loading historical data...

Documentation

Showing up to 5 results
|